(°C)
17°
18°
18°
17°
16°
15°
14°
(°C)
12°
12°
13°
12°
11°
11°
10°
Β
Β
Β
Β
Β
Β
Β
(χλμ / ω)
14-16
13-15
12-14
12-12
13-15
13-19
13-21
(χιλιοστά)
3
0
0
0
0
0
0
(%)
25
0
0
0
0
0
0

Ανύψωση ήλιου

/ 27.2°
sun-icon
UV 3
05:39
18:15
Αύξων αμφίκυρτος (φάση σελήνης) (124°)
16:23
24:00

METAR για 46.38°Β 44.32°Α (URWI)

Χρόνος Συνθήκες Θερμοκρασία/
Σημείο δρόσου
Άνεμος Ορατότητα Καιρός Νέφη Πίεση Αλλαγή Ανεπεξέργαστο
VFR 17°C / 4°C 110º 6kt >10km - Few Clouds 6300ft 1013 No Significant change. Runway 09: Clear and dry, 1-10% contamination with <1mm, friction coefficient 0.65. URWI 161200Z 11003MPS 9999 FEW063CB 17/04 Q1013 R09/010065 NOSIG
VFR 17°C / 4°C 100º 6kt >10km Light Showers Rain 3.00mm precipitation Vertical Visibility of 0ft. 1013 No Significant change. Runway 09: Clear and dry, 1-10% contamination with <1mm, friction coefficient 0.65. URWI 161130Z 10003MPS 9999 -SHRA FEW069CB 17/04 Q1013 R09/010065 NOSIG
18°C / 4°C 60º 4kt >10km Light Showers Rain 3.00mm precipitation Vertical Visibility of 0ft. 1014 No Significant change. Runway 09: Clear and dry, 1-10% contamination with <1mm, friction coefficient 0.65. URWI 161100Z 06002MPS 9999 -SHRA FEW///CB 18/04 Q1014 R09/010065 NOSIG
18°C / 1°C 40º 6kt >10km Light Showers Rain 3.00mm precipitation Vertical Visibility of 0ft. 1014 No Significant change. Runway 09: Clear and dry, 1-10% contamination with <1mm, friction coefficient 0.65. URWI 161030Z 04003MPS 9999 -SHRA FEW///CB 18/01 Q1014 R09/010065 NOSIG
18°C / 1°C 40º 6kt >10km - 1014 No Significant change. Runway 09: Clear and dry, 1-10% contamination with <1mm, friction coefficient 0.65. URWI 161000Z 04003MPS 9999 FEW///CB 18/01 Q1014 R09/010065 NOSIG
18°C / 1°C 40º 6kt >10km - 1014 No Significant change. Runway 09: Clear and dry, 1-10% contamination with <1mm, friction coefficient 0.65. URWI 160930Z 04003MPS 9999 FEW///CB 18/01 Q1014 R09/010065 NOSIG
17°C / 1°C 60º 6kt >10km - 1014 No Significant change. Runway 09: Clear and dry, 1-10% contamination with <1mm, friction coefficient 0.65. URWI 160900Z 06003MPS 9999 FEW///CB 17/01 Q1014 R09/010065 NOSIG
VFR 17°C / 0°C 60º 8kt >10km - Few Clouds 6200ft 1014 No Significant change. Runway 09: Clear and dry, 1-10% contamination with <1mm, friction coefficient 0.65. URWI 160830Z 06004MPS 9999 FEW062CB 17/00 Q1014 R09/010065 NOSIG
17°C / 1°C 40º 10kt >10km - 1014 No Significant change. Runway 09: Clear and dry, 1-10% contamination with <1mm, friction coefficient 0.65. URWI 160800Z 04005MPS 9999 FEW///CB 17/01 Q1014 R09/010065 NOSIG
18°C / 0°C 70º 8kt >10km - 1014 No Significant change. Runway 09: Clear and dry, 1-10% contamination with <1mm, friction coefficient 0.65. URWI 160730Z 07004MPS 9999 FEW///CB 18/M00 Q1014 R09/010065 NOSIG
17°C / 0°C 60º 8kt >10km - 1014 No Significant change. Runway 09: Clear and dry, 1-10% contamination with <1mm, friction coefficient 0.65. URWI 160700Z 06004MPS 9999 FEW///CB 17/00 Q1014 R09/010065 NOSIG
17°C / 0°C 60º 8kt >10km - 1014 No Significant change URWI 160630Z 06004MPS 9999 FEW///CB 17/00 Q1014 NOSIG
16°C / 0°C 60º 6kt >10km - 1014 No Significant change URWI 160600Z 06003MPS 9999 FEW///CB 16/M00 Q1014 NOSIG
16°C / 0°C 70º 8kt >10km - 1014 No Significant change URWI 160530Z 07004MPS 9999 FEW///CB 16/M00 Q1014 NOSIG
16°C / 0°C 70º 10kt >10km - 1013 - URWI 160500Z AUTO 07005MPS 9999 // ///069/// 16/M00 Q1013
15°C / 0°C 70º 8kt >10km - 1013 - URWI 160430Z AUTO 07004MPS 9999 // ///075/// 15/00 Q1013
14°C / 1°C 50º 6kt >10km - 1014 - URWI 160400Z AUTO 05003MPS 9999 // ///073/// 14/01 Q1014
14°C / 1°C 70º 6kt >10km - 1013 - URWI 160330Z AUTO 07003MPS 9999 // ///075/// 14/01 Q1013
13°C / 1°C 60º 8kt >10km - 1013 - URWI 160300Z AUTO 06004MPS 9999 // ///076/// 13/01 Q1013
13°C / 1°C 60º 8kt >10km - 1013 - URWI 160230Z AUTO 06004MPS 9999 // ///////// 13/01 Q1013
14°C / 2°C 60º 8kt >10km - 1013 - URWI 160200Z AUTO 06004MPS 9999 // ///076/// 14/02 Q1013
14°C / 2°C 70º 8kt >10km - 1013 - URWI 160130Z AUTO 07004MPS 9999 // ///084/// 14/02 Q1013
14°C / 2°C 70º 8kt >10km - 1013 - URWI 160100Z AUTO 07004MPS 9999 // ///085/// 14/02 Q1013
15°C / 2°C 70º 10kt >10km - 1013 - URWI 160030Z AUTO 07005MPS 9999 // ///073/// 15/02 Q1013

VFR

17°C / 4°C

[Περισσότερο]
Άνεμος 110º 6kt
Ορατότητα >10km
Καιρός -
Νέφη Few Clouds 6300ft
Πίεση 1013
Αλλαγή No Significant change. Runway 09: Clear and dry, 1-10% contamination with <1mm, friction coefficient 0.65.
Ανεπεξέργαστο URWI 161200Z 11003MPS 9999 FEW063CB 17/04 Q1013 R09/010065 NOSIG

VFR

17°C / 4°C

[Περισσότερο]
Άνεμος 100º 6kt
Ορατότητα >10km
Καιρός Light Showers Rain 3.00mm precipitation
Νέφη Vertical Visibility of 0ft.
Πίεση 1013
Αλλαγή No Significant change. Runway 09: Clear and dry, 1-10% contamination with <1mm, friction coefficient 0.65.
Ανεπεξέργαστο URWI 161130Z 10003MPS 9999 -SHRA FEW069CB 17/04 Q1013 R09/010065 NOSIG

18°C / 4°C

[Περισσότερο]
Άνεμος 60º 4kt
Ορατότητα >10km
Καιρός Light Showers Rain 3.00mm precipitation
Νέφη Vertical Visibility of 0ft.
Πίεση 1014
Αλλαγή No Significant change. Runway 09: Clear and dry, 1-10% contamination with <1mm, friction coefficient 0.65.
Ανεπεξέργαστο URWI 161100Z 06002MPS 9999 -SHRA FEW///CB 18/04 Q1014 R09/010065 NOSIG

18°C / 1°C

[Περισσότερο]
Άνεμος 40º 6kt
Ορατότητα >10km
Καιρός Light Showers Rain 3.00mm precipitation
Νέφη Vertical Visibility of 0ft.
Πίεση 1014
Αλλαγή No Significant change. Runway 09: Clear and dry, 1-10% contamination with <1mm, friction coefficient 0.65.
Ανεπεξέργαστο URWI 161030Z 04003MPS 9999 -SHRA FEW///CB 18/01 Q1014 R09/010065 NOSIG

18°C / 1°C

[Περισσότερο]
Άνεμος 40º 6kt
Ορατότητα >10km
Καιρός -
Νέφη
Πίεση 1014
Αλλαγή No Significant change. Runway 09: Clear and dry, 1-10% contamination with <1mm, friction coefficient 0.65.
Ανεπεξέργαστο URWI 161000Z 04003MPS 9999 FEW///CB 18/01 Q1014 R09/010065 NOSIG

18°C / 1°C

[Περισσότερο]
Άνεμος 40º 6kt
Ορατότητα >10km
Καιρός -
Νέφη
Πίεση 1014
Αλλαγή No Significant change. Runway 09: Clear and dry, 1-10% contamination with <1mm, friction coefficient 0.65.
Ανεπεξέργαστο URWI 160930Z 04003MPS 9999 FEW///CB 18/01 Q1014 R09/010065 NOSIG

17°C / 1°C

[Περισσότερο]
Άνεμος 60º 6kt
Ορατότητα >10km
Καιρός -
Νέφη
Πίεση 1014
Αλλαγή No Significant change. Runway 09: Clear and dry, 1-10% contamination with <1mm, friction coefficient 0.65.
Ανεπεξέργαστο URWI 160900Z 06003MPS 9999 FEW///CB 17/01 Q1014 R09/010065 NOSIG

VFR

17°C / 0°C

[Περισσότερο]
Άνεμος 60º 8kt
Ορατότητα >10km
Καιρός -
Νέφη Few Clouds 6200ft
Πίεση 1014
Αλλαγή No Significant change. Runway 09: Clear and dry, 1-10% contamination with <1mm, friction coefficient 0.65.
Ανεπεξέργαστο URWI 160830Z 06004MPS 9999 FEW062CB 17/00 Q1014 R09/010065 NOSIG

17°C / 1°C

[Περισσότερο]
Άνεμος 40º 10kt
Ορατότητα >10km
Καιρός -
Νέφη
Πίεση 1014
Αλλαγή No Significant change. Runway 09: Clear and dry, 1-10% contamination with <1mm, friction coefficient 0.65.
Ανεπεξέργαστο URWI 160800Z 04005MPS 9999 FEW///CB 17/01 Q1014 R09/010065 NOSIG

18°C / 0°C

[Περισσότερο]
Άνεμος 70º 8kt
Ορατότητα >10km
Καιρός -
Νέφη
Πίεση 1014
Αλλαγή No Significant change. Runway 09: Clear and dry, 1-10% contamination with <1mm, friction coefficient 0.65.
Ανεπεξέργαστο URWI 160730Z 07004MPS 9999 FEW///CB 18/M00 Q1014 R09/010065 NOSIG

17°C / 0°C

[Περισσότερο]
Άνεμος 60º 8kt
Ορατότητα >10km
Καιρός -
Νέφη
Πίεση 1014
Αλλαγή No Significant change. Runway 09: Clear and dry, 1-10% contamination with <1mm, friction coefficient 0.65.
Ανεπεξέργαστο URWI 160700Z 06004MPS 9999 FEW///CB 17/00 Q1014 R09/010065 NOSIG

17°C / 0°C

[Περισσότερο]
Άνεμος 60º 8kt
Ορατότητα >10km
Καιρός -
Νέφη
Πίεση 1014
Αλλαγή No Significant change
Ανεπεξέργαστο URWI 160630Z 06004MPS 9999 FEW///CB 17/00 Q1014 NOSIG

16°C / 0°C

[Περισσότερο]
Άνεμος 60º 6kt
Ορατότητα >10km
Καιρός -
Νέφη
Πίεση 1014
Αλλαγή No Significant change
Ανεπεξέργαστο URWI 160600Z 06003MPS 9999 FEW///CB 16/M00 Q1014 NOSIG

16°C / 0°C

[Περισσότερο]
Άνεμος 70º 8kt
Ορατότητα >10km
Καιρός -
Νέφη
Πίεση 1014
Αλλαγή No Significant change
Ανεπεξέργαστο URWI 160530Z 07004MPS 9999 FEW///CB 16/M00 Q1014 NOSIG

16°C / 0°C

[Περισσότερο]
Άνεμος 70º 10kt
Ορατότητα >10km
Καιρός -
Νέφη
Πίεση 1013
Αλλαγή -
Ανεπεξέργαστο URWI 160500Z AUTO 07005MPS 9999 // ///069/// 16/M00 Q1013

15°C / 0°C

[Περισσότερο]
Άνεμος 70º 8kt
Ορατότητα >10km
Καιρός -
Νέφη
Πίεση 1013
Αλλαγή -
Ανεπεξέργαστο URWI 160430Z AUTO 07004MPS 9999 // ///075/// 15/00 Q1013

14°C / 1°C

[Περισσότερο]
Άνεμος 50º 6kt
Ορατότητα >10km
Καιρός -
Νέφη
Πίεση 1014
Αλλαγή -
Ανεπεξέργαστο URWI 160400Z AUTO 05003MPS 9999 // ///073/// 14/01 Q1014

14°C / 1°C

[Περισσότερο]
Άνεμος 70º 6kt
Ορατότητα >10km
Καιρός -
Νέφη
Πίεση 1013
Αλλαγή -
Ανεπεξέργαστο URWI 160330Z AUTO 07003MPS 9999 // ///075/// 14/01 Q1013

13°C / 1°C

[Περισσότερο]
Άνεμος 60º 8kt
Ορατότητα >10km
Καιρός -
Νέφη
Πίεση 1013
Αλλαγή -
Ανεπεξέργαστο URWI 160300Z AUTO 06004MPS 9999 // ///076/// 13/01 Q1013

13°C / 1°C

[Περισσότερο]
Άνεμος 60º 8kt
Ορατότητα >10km
Καιρός -
Νέφη
Πίεση 1013
Αλλαγή -
Ανεπεξέργαστο URWI 160230Z AUTO 06004MPS 9999 // ///////// 13/01 Q1013

14°C / 2°C

[Περισσότερο]
Άνεμος 60º 8kt
Ορατότητα >10km
Καιρός -
Νέφη
Πίεση 1013
Αλλαγή -
Ανεπεξέργαστο URWI 160200Z AUTO 06004MPS 9999 // ///076/// 14/02 Q1013

14°C / 2°C

[Περισσότερο]
Άνεμος 70º 8kt
Ορατότητα >10km
Καιρός -
Νέφη
Πίεση 1013
Αλλαγή -
Ανεπεξέργαστο URWI 160130Z AUTO 07004MPS 9999 // ///084/// 14/02 Q1013

14°C / 2°C

[Περισσότερο]
Άνεμος 70º 8kt
Ορατότητα >10km
Καιρός -
Νέφη
Πίεση 1013
Αλλαγή -
Ανεπεξέργαστο URWI 160100Z AUTO 07004MPS 9999 // ///085/// 14/02 Q1013

15°C / 2°C

[Περισσότερο]
Άνεμος 70º 10kt
Ορατότητα >10km
Καιρός -
Νέφη
Πίεση 1013
Αλλαγή -
Ανεπεξέργαστο URWI 160030Z AUTO 07005MPS 9999 // ///073/// 15/02 Q1013

TAF για 46.38°Β 44.32°Α (URWI)

From till


From till Wind 40º 6kt. Gust 16kt. Visibility 10km or more. Scattered Clouds 3000ft.
With 40% probability, Temporarly from till Light Thunderstorm Rain .
Temporarly from till Wind 60º 6kt. Gust 19kt. Light Showers Rain . Scattered Clouds 1600ft. Broken Clouds 3000ft.

Ανεπεξέργαστο: TAF URWI 161056Z 1612/1621 04003G08MPS 9999 SCT030CB TEMPO 1612/1621 06003G10MPS -SHRA SCT016 BKN030CB PROB40 TEMPO 1612/1618 -TSRA

Τρέχουσες εικόνες δορυφόρου και βροχής για 46.38°Β 44.32°Α

Η ένδειξη τοποθεσίας τοποθετείται στο 46.38°Β 44.32°Α. [Περισσότερο]

Οι δορυφορικές εικόνες σε πραγματικό χρόνο συνδυάζουν ορατό φως κατά τη διάρκεια της ημέρας με υπέρυθρη ακτινοβολία κατά τη διάρκεια της νύχτας. Κατά τη διάρκεια της νύχτας, η εικόνα δεν είναι σκοτεινή μιας και η υπέρυθρη ακτινοβολία μπορεί να εντοπίσει τις διαφορές στη θερμοκρασία. Δυστυχώς, είναι δύσκολο να ξεχωρίσουν οι χαμηλές νεφώσεις και η ομίχλη από τις θερμοκρασίες εδάφους και έτσι μπορεί να είναι σχετικά αόρατα κατά τη διάρκεια της νύχτας. Οι εικόνες από τον δορυφόρο Meteosat για την Ευρώπη ενημερώνονται σε πραγματικό χρόνο κάθε 5 λεπτά. Οι εικόνες από τους δορυφόρους GOES-16/GOES-17 (Βόρεια & Λατινική Αμερική) και Himawari (Ασία) ενημερώνονται κάθε 10 λεπτά.

Πνευματική ιδιοκτησία 2021 EUMETSAT / meteoblue. / Πνευματική ιδιοκτησία 2021 meteoblue

Ραντάρ και πρόγνωση υετού μικρής δειάρκειας για 46.38°Β 44.32°Α

Ψιλοβρέχει
Φως
Μέτρια
Βαριά
Πολύ βαρύ
Χαλάζι

Ο δείκτης θέσης τοποθετείται στο 46.38°Β 44.32°Α. Αυτή η κινούμενη εικόνα δείχνει την ραντάρ βροχόπτωσης για την τελευταία ώρα, καθώς και 1πρόγνωση h. Το ψιλόβροχο ή το ελαφρύ χιόνι μπορεί να είναι αόρατο για το ραντάρ. Η ένταση της βροχόπτωσης είναι χρωματικά κωδικοποιημένη και κυμαίνεται από γαλάζιο έως πορτοκαλί.